Regional Weather Roundup
Issued by NWS Cleveland, OH

Home | Current Version | Previous Version | Graphics & Text | Print | Product List | Glossary On
Versions: 1 2 3 4 5 6 7 8 9 10 11 12 13 14 15 16 17 18 19 20 21 22 23 24 25 26 27 28 29 30 31 32 33 34 35 36 37 38 39 40 41 42 43 44 45 46 47 48 49 50
000
ASUS41 KCLE 272212
RWRCLE
OHIO REGIONAL WEATHER ROUNDUP
NATIONAL WEATHER SERVICE WILMINGTON, OH
600 PM EDT SUN MAY 27 2018

NOTE: "FAIR" INDICATES FEW OR NO CLOUDS BELOW 12,000 FEET WITH NO
SIGNIFICANT WEATHER AND/OR OBSTRUCTIONS TO VISIBILITY.

OHZ001>008-015>018-024>027-034-035-043-044-272300-
   NORTHWEST OHIO

CITY           SKY/WX    TMP DP  RH WIND       PRES   REMARKS
DEFIANCE       FAIR      91  61  36 SE6       29.86F HX  91
FINDLAY        FAIR      90  58  33 CALM      29.88F
TOLEDO EXPRESS FAIR      92  61  35 S3        29.86F HX  92
TOLEDO EXEC    FAIR      91  60  35 CALM      29.87F HX  90
LIMA           FAIR      90  58  33 CALM      29.89F
$$

OHZ009>014-019>023-028>033-038-089-272300-
   NORTHEAST OHIO

CITY           SKY/WX    TMP DP  RH WIND       PRES   REMARKS
CLE-HOPKINS    FAIR      86  64  47 N6        29.91F
CLE-LAKEFRONT  FAIR      79  68  69 NE5       29.89F
CUY CO. ARPT   MOSUNNY   86  66  51 NW7       29.92F
LORAIN-ELYRIA  FAIR      85  61  44 VRB3      29.90F
ASHTABULA      FAIR      81  67  62 NW6       29.92F
AKRON-CANTON   FAIR      84  65  52 CALM      29.94S
WOOSTER        FAIR      83  68  60 CALM      29.93S
MANSFIELD      FAIR      88  64  44 N7        29.92F
YOUNGSTOWN     PTSUNNY   83  65  54 CALM      29.93S
$$

OHZ042-051>053-060>062-070>072-077>081-272300-
  SOUTHWEST OHIO

CITY           SKY/WX    TMP DP  RH WIND       PRES   REMARKS
CINC-COVINGTON FAIR      83  67  58 S9        29.91R
CINC-LUNKEN    PTSUNNY   84  72  67 S6        29.89S
HAMILTON       FAIR      89  69  51 CALM      29.90R HX  93
DAYTON         FAIR      89  66  46 N6        29.91S HX  91
WRIGHT-PAT AFB FAIR      89  59  35 NW3       29.90R
DAYTON GENERAL FAIR      90  59  35 CALM      29.90S
WILMINGTON     FAIR      88  64  44 S3        29.91R
$$

OHZ036-037-039>041-045>050-054>059-063>069-073>076-082>088-272300-
  CENTRAL AND SOUTHEAST OHIO

CITY           SKY/WX    TMP DP  RH WIND       PRES   REMARKS
COLUMBUS       FAIR      88  64  44 E5        29.90R
OSU AIRPORT    FAIR      89  64  43 CALM      29.90S HX  90
BOLTON FIELD   MOSUNNY   88  66  48 N6        29.91R HX  90
RICKENBACK AFB PTSUNNY   88  65  47 MISG      29.90S
NEWARK         FAIR      87  66  49 N3        29.91R
MARION         FAIR      87  62  43 N8        29.91R
LANCASTER      FAIR      87  66  49 VRB5      29.91S
ZANESVILLE     FAIR      84  67  56 NE5       29.93R
NEW PHILLY     FAIR      83  66  56 CALM      29.94R
$$



USA.gov is the U.S. government's official web portal to all federal, state and local government web resources and services.